Overview Statistics Trail Chart Weather Telemetry Raw packets
 

This is the latest recevied weather packets stored in our database for station/object K4GDX. If no packets are shown the sender has not sent any weather packets the latest 10 day(s).

<< 110 111 112 113 114 >>
Time Temp. Humidity Pressure Rain* Wind** Luminosity Snow
1787767171 32.78° C 67% 1015.2 hPa 0 mm - 397 W/m² -
1787766871 33.33° C 68% 1015.3 hPa 0 mm - 271 W/m² -
1787766570 33.33° C 71% 1015.4 hPa 0 mm - 1048 W/m² -
1787766270 32.78° C 72% 1015.5 hPa 0 mm - 1021 W/m² -
1787765971 32.78° C 68% 1015.5 hPa 0 mm - 204 W/m² -
1787765663 32.78° C 69% 1015.7 hPa 0 mm - 1030 W/m² -
1787765365 32.78° C 69% 1015.7 hPa 0 mm - 188 W/m² -
1787765068 32.78° C 69% 1015.8 hPa 0 mm - 967 W/m² -
1787764765 32.22° C 68% 1015.9 hPa 0 mm - 963 W/m² -
1787764465 32.22° C 71% 1015.9 hPa 0 mm - 860 W/m² -
1787764164 32.22° C 69% 1016.1 hPa 0 mm - 209 W/m² -
1787763855 32.22° C 68% 1016.2 hPa 0 mm - 842 W/m² -
1787763556 32.22° C 69% 1016.3 hPa 0 mm - 875 W/m² -
1787763251 32.22° C 70% 1016.4 hPa 0 mm - 891 W/m² -
1787762951 32.22° C 70% 1016.4 hPa 0 mm - 875 W/m² -
1787762651 31.67° C 72% 1016.6 hPa 0 mm - 879 W/m² -
1787762347 31.67° C 75% 1016.7 hPa 0 mm - 898 W/m² -
1787762047 31.67° C 74% 1016.9 hPa 0 mm - 902 W/m² -
1787761752 31.67° C 75% 1017 hPa 0 mm - 916 W/m² -
1787761447 31.67° C 75% 1017.1 hPa 0 mm - 984 W/m² -
1787761144 31.67° C 75% 1017.2 hPa 0 mm - 302 W/m² -
1787760845 31.67° C 77% 1017.2 hPa 0 mm - 589 W/m² -
1787760543 31.67° C 78% 1017.2 hPa 0 mm - 962 W/m² -
1787760245 31.67° C 80% 1017.2 hPa 0 mm - 933 W/m² -
1787759944 31.67° C 79% 1017.2 hPa 0 mm - 902 W/m² -

* Rain latest hour (hover to see other rain measurements)
** Current wind speed in m/s (hover to see current wind gust speed)